Location: Casilda
(33.0440°S, 61.1680°W)
Time: 17:41:35
(UTC-03:00)

ISS - Pass Details

Date: 21 January 2022
Orbit: 413 x 422 km, 51.6° (Epoch: 19 January)

Event Time Altitude Azimuth Distance (km) Brightness Sun altitude
Exits shadow 04:51:06 10° 17° (NNE) 1,515 -1.1 -16.3°
Reaches altitude 10° 04:51:07 10° 18° (NNE) 1,510 -1.1 -16.3°
Maximum altitude 04:53:06 15° 54° (NE) 1,259 -1.2 -15.9°
Drops below altitude 10° 04:55:06 10° 89° (E) 1,523 -0.1 -15.6°
Sets 04:57:54 0° 114° (ESE) 2,398 1.7 -15.1°
